Location: Bismarck
(46.7731°N, 100.8200°W)
Time: 00:30:57
(UTC-06:00)

ISS - Visible Passes

Search period start: 22 February 2018 00:00
Search period end: 04 March 2018 00:00
Orbit: 403 x 407 km, 51.6° (Epoch: 22 February)

Date Brightness Start Highest point End Pass type
(mag) Time Alt. Az. Time Alt. Az. Time Alt. Az.
27 Feb -1.3 06:15:54 10° S 06:18:24 20° SE 06:20:55 10° E visible
28 Feb -0.9 05:25:05 10° SSE 05:26:21 12° SE 05:27:39 10° ESE visible
01 Mar -2.7 06:07:30 13° SSW 06:10:06 41° SE 06:13:13 10° ENE visible
02 Mar -2.0 05:17:36 24° SSE 05:17:56 24° SE 05:20:40 10° E visible
02 Mar -3.7 06:50:56 10° WSW 06:54:12 66° NNW 06:57:29 10° ENE visible
03 Mar -0.4 04:27:35 10° ESE 04:27:35 10° ESE 04:27:42 10° E visible
03 Mar -3.9 06:00:14 27° WSW 06:01:52 82° SSE 06:05:09 10° ENE visible
